TIME,�g��[���C[MJ/h],����[MJ/h],�Ɩ�[MJ/h],�~�[[MJ/h],�①��[MJ/h],��y���[MJ/h],�Ǝ��q��[MJ/h],���̑�[MJ/h],�����G�l���M�[[MJ/h]
2003/1/1 0:00,10.6276,0,0,0.1323,0.1329,0.3082,0.1037,3.8778,0
2003/1/1 0:15,11.3355,0,0,0.1405,0.4041,0.3684,0.2913,4.3301,0
2003/1/1 0:30,11.4474,0,0,0.1436,0.4094,0.3928,0.2615,1.795,0
2003/1/1 0:45,11.4245,0,0,0.1423,0.3394,0.3858,0.5291,0.9665,0
2003/1/1 1:00,11.4119,0,0,0.142,0.217,0.3992,0.5135,0.8065,0
2003/1/1 1:15,11.5502,0,0,0.1439,0.4078,0.0661,0.1555,0.3882,0
2003/1/1 1:30,11.5468,0,0,0.1452,0.4117,0.0432,0.1587,0.3326,0
2003/1/1 1:45,11.3714,0,0,0.1456,0.125,0.0425,0.1135,0.3246,0
2003/1/1 2:00,11.4647,0,0,0.1444,0.4146,0.0431,0.1568,0.321,0
2003/1/1 2:15,11.4611,0,0,0.142,0.4078,0.0428,0.1597,0.3223,0
2003/1/1 2:30,11.5213,0,0,0.1464,0.2413,0.0431,0.1128,0.3275,0
2003/1/1 2:45,11.5703,0,0,0.1436,0.289,0.0432,0.1634,0.3259,0
2003/1/1 3:00,11.4218,0,0,0.148,0.4036,0.0426,0.1646,0.3283,0
2003/1/1 3:15,11.3613,0,0,0.1418,0.3295,0.0426,0.1126,0.3247,0
2003/1/1 3:30,11.4286,0,0,0.1439,0.1938,0.0426,0.1568,0.3184,0
2003/1/1 3:45,11.478,0,0,0.1463,0.4019,0.0431,0.113,0.3275,0
2003/1/1 4:00,11.5055,0,0,0.148,0.3947,0.0431,0.1574,0.3462,0
2003/1/1 4:15,11.5278,0,0,0.1421,0.126,0.0431,0.1604,0.3276,0
2003/1/1 4:30,11.54,0,0,0.146,0.4005,0.0431,0.1129,0.3342,0
2003/1/1 4:45,11.5776,0,0,0.146,0.4046,0.0433,0.1607,0.323,0
2003/1/1 5:00,11.4994,0,0,0.1441,0.4059,0.0431,0.1129,0.3391,0
2003/1/1 5:15,11.4788,0,0,0.1452,0.5125,0.0431,0.1624,0.336,0
2003/1/1 5:30,11.4646,0,0,0.147,0.5975,0.0429,0.1211,0.325,0
2003/1/1 5:45,11.4555,0,0,0.146,0.339,0.0431,0.0501,0.3184,0
2003/1/1 6:00,11.5692,0,0,0.1449,0.4019,0.0432,0.0969,0.3174,0
2003/1/1 6:15,11.6002,0,0,0.1449,0.4091,0.0433,0.0498,0.326,0
2003/1/1 6:30,11.5841,0,0,0.1431,0.4146,0.0433,0.0985,0.3338,0
2003/1/1 6:45,1.5024,0,0,0.1464,0.4175,0.0438,0.0613,0.372,0
2003/1/1 7:00,6.607,0,0,0.1427,0.4164,0.0606,0.1074,0.3118,0
2003/1/1 7:15,11.488,0,0,0.1464,0.4023,0.0431,0.109,0.318,0
2003/1/1 7:30,11.6024,0,0,0.1467,0.1498,0.0433,0.0616,0.3192,0
2003/1/1 7:45,4.5225,0,0,0.1452,0.4052,0.0435,0.1113,0.3702,0
2003/1/1 8:00,0.4267,0,0,0.1433,0.4069,0.0432,0.0618,0.319,0
2003/1/1 8:15,0,0,0,0.1453,0.1306,0.0435,0.1103,0.3365,0
2003/1/1 8:30,0,0,0,0.144,0.4029,0.0432,0.0615,0.3397,0
2003/1/1 8:45,0.3015,0,0,0.1441,0.4048,0.0429,0.1666,2.4895,0
2003/1/1 9:00,4.2571,0,0,2.9105,0.143,0.0423,0.1056,4.3636,0
2003/1/1 9:15,4.5624,0,0,4.3338,0.3781,0.0422,0.0631,4.3622,0
2003/1/1 9:30,4.5788,0,0,2.808,0.398,0.1002,0.2534,4.4412,0
2003/1/1 9:45,4.5569,0,0,1.831,0.1274,0.3518,0.5054,4.3488,0
2003/1/1 10:00,4.5374,0,0,1.2171,0.3966,0.0422,0.5308,4.3008,0
2003/1/1 10:15,4.4556,0,0,0.4676,0.4031,0.042,0.5282,4.3638,0
2003/1/1 10:30,2.6283,0,0,0.1444,0.1312,0.0422,0.686,3.0836,0
2003/1/1 10:45,0.0225,0,0,0.1473,0.4008,0.0425,0.0638,0.2634,0
2003/1/1 11:00,0,0,0,0.149,0.4026,0.0425,0.1031,0.3597,0
2003/1/1 11:15,0,0,0,0.1477,0.128,0.0425,0.1054,0.6379,0
2003/1/1 11:30,0,0,0,0.1475,0.3987,0.0428,0.1073,0.7534,0
2003/1/1 11:45,0,0,0,0.1512,0.3542,0.0428,0.0648,0.7438,0
2003/1/1 12:00,0,0,0,0.144,0.1722,0.0517,0.1071,0.7563,0
2003/1/1 12:15,0,0,0,0.1502,0.4031,0.0432,0.1092,0.7687,0
2003/1/1 12:30,0,0,0,0.1489,0.2729,0.0432,0.0636,0.7672,0
2003/1/1 12:45,0,0,0,0.1457,0.2516,0.0431,0.1028,0.7557,0
2003/1/1 13:00,0,0,0,0.149,0.4033,0.0429,0.0966,0.7515,0
2003/1/1 13:15,0,0,0,0.1498,0.1884,0.0433,0.0508,0.755,0
2003/1/1 13:30,0,0,0,0.1488,0.3328,0.0435,0.0978,0.7422,0
2003/1/1 13:45,0,0,0,0.1477,0.4041,0.0433,0.0508,0.756,0
2003/1/1 14:00,0,0,0,0.1447,0.1087,0.0431,0.0978,0.7538,0
2003/1/1 14:15,0,0,0,0.1505,0.4067,0.0429,0.0965,0.7645,0
2003/1/1 14:30,0,0,0,0.1486,0.3872,0.0432,0.0501,0.7631,0
2003/1/1 14:45,0,0,0,0.1453,0.1316,0.0435,0.0926,0.7518,0
2003/1/1 15:00,0,0,0,0.1486,0.4028,0.0435,0.0497,0.7502,0
2003/1/1 15:15,0,0,0,0.145,0.289,0.0433,0.0979,0.7633,0
2003/1/1 15:30,0,0,0,0.1496,0.2285,0.0433,0.0959,0.753,0
2003/1/1 15:45,0,0,0,0.1469,0.4032,0.0431,0.0612,0.7603,0
2003/1/1 16:00,0,0,0,0.1522,0.1813,0.0429,0.1074,0.7553,0
2003/1/1 16:15,0,0,0,0.1431,0.3282,0.0425,0.0618,0.7479,0
2003/1/1 16:30,0,0,0,0.1476,0.4013,0.0426,0.1102,0.7623,0
2003/1/1 16:45,0,0,0,0.1454,0.1051,0.0426,0.1084,0.7593,0
2003/1/1 17:00,0,0,0,0.1479,0.4019,0.0429,0.0616,0.8078,0
2003/1/1 17:15,0,0,0,0.1505,0.1319,0.0428,0.1068,0.78,0
2003/1/1 17:30,0,0,0,0.1475,0.399,0.0428,0.0612,0.8015,0
2003/1/1 17:45,0,0,0,0.1479,0.398,0.0428,0.1083,0.792,0
2003/1/1 18:00,0,0,0,0.1475,0.1151,0.0423,0.1136,0.8058,0
2003/1/1 18:15,0,0,0,0.1492,0.3944,0.0425,0.0609,0.7926,0
2003/1/1 18:30,0,0,0,0.1456,0.3244,0.0426,0.1136,0.7982,0
2003/1/1 18:45,0,0,0,0.1528,0.1814,0.0425,0.0606,0.7861,0
2003/1/1 19:00,0,0,0,0.1469,0.3937,0.06,0.1038,0.8019,0
2003/1/1 19:15,0,0,0,0.1499,0.2393,0.0426,0.0608,0.7976,0
2003/1/1 19:30,0,0,0,0.1472,0.2606,0.0425,0.1126,0.8009,0
2003/1/1 19:45,0,0,0,0.1495,0.2712,0.0428,0.0606,0.8045,0
2003/1/1 20:00,0,0,0,0.1509,0.2529,0.0426,0.1117,0.7988,0
2003/1/1 20:15,0,0,0,0.1515,0.393,0.0428,0.0602,0.8006,0
2003/1/1 20:30,0,0,0,0.1457,0.1986,0.0426,0.1076,0.7995,0
2003/1/1 20:45,0,0,0,0.1515,0.3047,0.0426,0.1103,0.7975,0
2003/1/1 21:00,0,0,0,0.1486,0.392,0.0425,0.0609,0.8002,0
2003/1/1 21:15,0,0,0,0.149,0.1297,0.0426,0.1087,0.8064,0
2003/1/1 21:30,0,0,0,0.1505,0.3643,0.0423,0.0609,0.8009,0
2003/1/1 21:45,2.0307,0,0,0.1531,0.3931,0.0429,0.1117,1.4566,0
2003/1/1 22:00,12.6842,0,0,0.146,0.0981,0.31,0.0603,4.0621,0
2003/1/1 22:15,15.7992,0,0,0.1496,0.391,0.3995,0.1096,4.0753,0
2003/1/1 22:30,15.7067,0,0,0.1524,0.3588,0.4556,0.102,4.3079,0
2003/1/1 22:45,15.6097,0,0,0.1453,0.1315,0.4575,0.0484,4.4091,0
2003/1/1 23:00,15.7679,0,0,0.1528,0.3578,0.4565,0.1015,1.543,0
2003/1/1 23:15,15.7206,0,0,0.1421,0.1549,0.4385,0.051,3.3787,0
2003/1/1 23:30,15.6688,0,0,0.1521,0.3912,0.4753,0.0979,0.6892,0
2003/1/1 23:45,15.6259,0,0,0.1477,0.2817,0.4524,0.0609,0.8991,0
2003/1/2 0:00,15.5985,0,0,0.1446,0.2252,0.4355,0.0868,1.2758,0
2003/1/2 0:15,15.9412,0,0,0.1505,0.3956,0.433,0.2209,1.3097,0
2003/1/2 0:30,16.0413,0,0,0.1477,0.399,0.4362,0.4382,0.6968,0
2003/1/2 0:45,15.6378,0,0,0.1488,0.4291,0.4922,0.6372,0.6939,0
2003/1/2 1:00,15.3438,0,0,0.1457,0.5835,0.4422,0.5334,0.6886,0
2003/1/2 1:15,13.8256,0,0,0.1489,0.4091,0.3735,0.3794,0.7119,0
2003/1/2 1:30,11.5004,0,0,0.1463,0.3956,0.0814,0.168,0.2749,0
2003/1/2 1:45,11.4343,0,0,0.1482,0.4065,0.0929,0.1132,0.2735,0
2003/1/2 2:00,11.4633,0,0,0.1467,0.4127,0.1087,0.1636,0.2599,0
2003/1/2 2:15,11.478,0,0,0.1511,0.4163,0.1087,0.1132,0.2824,0
2003/1/2 2:30,11.4598,0,0,0.1498,0.4169,0.1086,0.1603,0.2745,0
2003/1/2 2:45,11.5439,0,0,0.1459,0.2284,0.109,0.1639,0.2737,0
2003/1/2 3:00,11.4551,0,0,0.1493,0.3132,0.1087,0.1133,0.2723,0
2003/1/2 3:15,11.4166,0,0,0.15,0.4032,0.1087,0.1591,0.2769,0
2003/1/2 3:30,11.4589,0,0,0.1482,0.1479,0.109,0.1642,0.2807,0
2003/1/2 3:45,11.5014,0,0,0.1526,0.3767,0.0595,0.1133,0.2925,0
2003/1/2 4:00,11.5102,0,0,0.1493,0.4026,0.0426,0.1642,0.2873,0
2003/1/2 4:15,11.5268,0,0,0.1496,0.1146,0.0428,0.1331,0.3001,0
2003/1/2 4:30,11.5124,0,0,0.1472,0.4013,0.0429,0.145,0.2874,0
2003/1/2 4:45,11.5478,0,0,0.1499,0.3961,0.0431,0.1634,0.3028,0
2003/1/2 5:00,11.5082,0,0,0.1531,0.1156,0.0429,0.1138,0.2733,0
2003/1/2 5:15,11.4774,0,0,0.1503,0.3964,0.0429,0.1633,0.2942,0
2003/1/2 5:30,11.4607,0,0,0.1492,0.3178,0.0429,0.1629,0.3828,0
2003/1/2 5:45,11.4349,0,0,0.1544,0.1858,0.0426,0.1133,0.2796,0
2003/1/2 6:00,11.4805,0,0,0.1483,0.3348,0.0429,0.1634,0.3024,0
2003/1/2 6:15,11.4731,0,0,0.1506,0.1836,0.0426,0.1135,1.112,0
2003/1/2 6:30,11.4938,0,0,0.1528,0.395,0.0423,0.1623,3.4733,0
2003/1/2 6:45,11.482,0,0,0.1525,0.2838,0.0422,0.1724,3.451,0
2003/1/2 7:00,11.4111,0,0,0.1513,0.22,0.0596,0.1243,3.4384,0
2003/1/2 7:15,11.2797,0,0,0.1483,0.3925,0.0419,0.1721,3.406,0
2003/1/2 7:30,11.4899,0,0,0.1524,0.217,0.0423,0.1722,3.4658,0
2003/1/2 7:45,4.6822,0,0,0.1483,0.2825,0.0426,0.109,3.531,0
2003/1/2 8:00,0.4212,0,0,0.1525,0.2448,0.0429,0.1148,3.5421,0
2003/1/2 8:15,0,0,0,0.1522,0.2719,0.0936,0.0648,3.5006,0
2003/1/2 8:30,0,0,0,0.149,0.3957,0.059,0.1136,3.493,0
2003/1/2 8:45,0,0,0,0.1464,0.1814,0.0422,0.1181,3.4777,0
2003/1/2 9:00,0,0,0,0.1472,0.3226,0.0422,0.0648,3.4829,0
2003/1/2 9:15,0,0,0,1.6079,0.197,0.0418,0.732,3.8743,0
2003/1/2 9:30,0,0,0,1.7123,0.3217,0.042,0.7962,4.2827,0
2003/1/2 9:45,0,0,0,3.262,0.3992,0.0418,0.5554,4.1092,0
2003/1/2 10:00,0,0,0,0.7226,0.1259,0.042,0.811,4.0221,0
2003/1/2 10:15,0,0,0,1.7519,0.3881,0.1316,0.0651,4.2113,0
2003/1/2 10:30,0,0,0,1.1156,0.1597,0.4169,0.2593,4.2499,0
2003/1/2 10:45,0,0,0,0.7265,0.4064,0.0688,0.1084,6.3832,0
2003/1/2 11:00,0,0,0,0.1421,0.3832,0.0431,0.1067,1.6458,0
2003/1/2 11:15,0,0,0,0.1407,0.1532,0.0433,0.1349,0.575,0
2003/1/2 11:30,0,0,0,0.1444,0.4078,0.3862,0.1198,3.3542,0
2003/1/2 11:45,0,0,0,0.1403,0.3128,0.4091,0.1113,1.2087,0
2003/1/2 12:00,0,0,0,0.1418,0.2187,0.4045,0.1089,0.4919,0
2003/1/2 12:15,0,0,0,0.1492,0.3734,0.408,0.0589,0.4163,0
2003/1/2 12:30,0,0,0,0.1426,0.1692,0.4094,0.104,0.6591,0
2003/1/2 12:45,0,0,0,0.1416,0.4084,0.4105,0.0979,0.8057,0
2003/1/2 13:00,0,0,0,0.1439,0.1398,0.4169,0.0672,1.0103,0
2003/1/2 13:15,0,0,0,0.1407,0.409,0.4287,0.1092,1.134,0
2003/1/2 13:30,0,0,0,0.1466,0.1868,0.3835,0.0579,1.0611,0
2003/1/2 13:45,0,0,0,0.1433,0.4128,0.0436,0.093,0.9019,0
2003/1/2 14:00,0,0,0,0.1443,0.2195,0.2068,0.0995,0.8942,0
2003/1/2 14:15,0,0,0,0.1407,0.3394,0.3528,0.2935,0.8906,0
2003/1/2 14:30,0,0,0,0.1439,0.3299,0.3623,0.5206,0.8656,0
2003/1/2 14:45,0,0,0,0.1443,0.2265,0.3469,0.5034,0.8621,0
2003/1/2 15:00,0,0,0,0.1437,0.412,0.357,0.5486,0.8695,0
2003/1/2 15:15,0,0,0,1.9551,0.145,0.3493,0.5183,1.067,0
2003/1/2 15:30,0,0,0,4.6227,0.4113,0.3396,0.4624,1.0712,0
2003/1/2 15:45,0,0,0,2.0174,0.4149,0.3835,0.4998,1.0377,0
2003/1/2 16:00,0,0,0,0.141,0.1814,0.3456,0.4333,1.0433,0
2003/1/2 16:15,0,0,0,0.1475,0.3519,0.3483,0.4945,0.9996,0
2003/1/2 16:30,0,0,0,0.1482,0.2644,0.3426,0.4897,0.96,0
2003/1/2 16:45,0,0,0,0.1401,0.282,0.3601,0.4533,0.9966,0
2003/1/2 17:00,0,0,0,0.1416,0.3757,0.4124,0.4867,1.2816,0
2003/1/2 17:15,0,0,0,0.1401,0.1732,0.4098,0.4795,1.1821,0
2003/1/2 17:30,0,0,0,0.1414,0.4056,0.4272,0.4249,1.4165,0
2003/1/2 17:45,0,0,0,0.1426,0.4104,0.4467,0.462,1.5608,0
2003/1/2 18:00,0,0,0,0.142,0.1168,0.4123,0.4044,1.5227,0
2003/1/2 18:15,0,0,0,0.1404,0.4036,0.4104,0.4817,1.4232,0
2003/1/2 18:30,0,0,0,0.7512,0.4072,0.4062,0.5283,1.4253,0
2003/1/2 18:45,0,0,0,0.7939,0.1974,0.1603,0.4782,1.2362,0
2003/1/2 19:00,0,0,0,1.0198,0.3305,0.2079,0.5161,1.4689,0
2003/1/2 19:15,0,0,0,1.8007,0.2794,0.4729,0.5651,1.386,0
2003/1/2 19:30,0,0,0,0.9799,0.2589,0.4664,0.4896,1.3624,0
2003/1/2 19:45,0,0,0,0.1693,0.4041,0.1099,0.5219,1.1876,0
2003/1/2 20:00,0,0,0,0.1632,0.4074,0.1097,0.4834,1.0145,0
2003/1/2 20:15,0,0,0,0.2206,0.126,0.18,0.5208,2.9629,0
2003/1/2 20:30,0,0,0,0.2172,0.4029,0.4143,0.6617,4.2035,0
2003/1/2 20:45,0,0,0,0.2213,0.4065,0.4288,0.502,4.2539,0
2003/1/2 21:00,0,0,0,0.219,0.4811,0.4091,0.5125,4.2594,0
2003/1/2 21:15,0,0,0,0.2232,0.5888,0.4193,0.4615,4.3229,0
2003/1/2 21:30,0.0222,0,0,0.2235,0.3594,0.417,0.5247,4.4487,0
2003/1/2 21:45,3.5947,0,0,0.2167,0.3992,0.4113,0.5417,5.1218,0
2003/1/2 22:00,12.4533,0,0,0.2196,0.4065,0.3914,0.4774,-9.6804,0
2003/1/2 22:15,15.5693,0,0,0.2242,0.4114,0.4075,0.5211,-17.1336,0
2003/1/2 22:30,15.5356,0,0,0.2182,0.4127,0.3995,0.4956,-14.1968,0
2003/1/2 22:45,15.4238,0,0,0.2225,0.416,0.3946,0.4347,-2.6666,0
2003/1/2 23:00,15.3553,0,0,0.2164,0.4188,0.396,0.4886,0.0756,0
2003/1/2 23:15,15.1917,0,0,0.634,0.1896,0.3928,0.4834,-1.6707,0
2003/1/2 23:30,15.4224,0,0,2.2558,0.4075,0.3953,0.4671,-14.7141,0
2003/1/2 23:45,14.9867,0,0,0.2163,0.4094,0.4376,0.5291,1.2967,0
2003/1/3 0:00,15.733,0,0,0.2166,0.1657,0.4753,0.545,0.5121,0
2003/1/3 0:15,15.8151,0,0,0.2187,0.3843,0.4677,0.4942,0.6454,0
2003/1/3 0:30,15.5411,0,0,0.2228,0.4068,0.4542,0.5355,0.9019,0
2003/1/3 0:45,15.2119,0,0,0.2127,0.2421,0.3891,0.5187,0.8556,0
2003/1/3 1:00,15.0705,0,0,0.2189,0.3122,0.4411,0.4572,0.9644,0
2003/1/3 1:15,14.4501,0,0,0.2209,0.4033,0.4035,0.4775,0.6781,0
2003/1/3 1:30,11.3453,0,0,0.2123,0.3325,0.1089,0.162,0.24,0
2003/1/3 1:45,11.3351,0,0,0.3689,0.2205,0.1092,0.1139,0.7992,0
2003/1/3 2:00,11.3953,0,0,0.4163,0.3768,0.1092,0.1547,1.185,0
2003/1/3 2:15,11.3141,0,0,0.184,0.1807,0.1093,0.1636,0.3259,0
2003/1/3 2:30,11.1704,0,0,0.232,0.3964,0.1089,0.1156,0.2686,0
2003/1/3 2:45,11.2582,0,0,0.2503,0.402,0.1092,0.164,0.4095,0
2003/1/3 3:00,11.2622,0,0,0.2519,0.1355,0.1094,0.1621,0.3421,0
2003/1/3 3:15,11.2977,0,0,0.25,0.3987,0.0596,0.1152,0.3803,0
2003/1/3 3:30,11.3619,0,0,0.2556,0.1489,0.0422,0.1653,0.434,0
2003/1/3 3:45,11.391,0,0,0.2514,0.3982,0.0426,0.1151,0.4575,0
2003/1/3 4:00,11.3787,0,0,0.2544,0.142,0.0425,0.1611,0.4476,0
2003/1/3 4:15,11.3882,0,0,0.2516,0.4065,0.0425,0.161,0.3897,0
2003/1/3 4:30,11.3949,0,0,0.255,0.2164,0.0426,0.1155,0.3708,0
2003/1/3 4:45,11.3846,0,0,0.2517,0.3318,0.0428,0.1639,0.2468,0
2003/1/3 5:00,11.3747,0,0,0.2539,0.3973,0.0425,0.1646,0.239,0
2003/1/3 5:15,11.3417,0,0,0.2578,0.2616,0.0426,0.1152,0.2435,0
2003/1/3 5:30,11.34,0,0,0.2534,0.2632,0.0422,0.1611,0.9012,0
2003/1/3 5:45,11.2608,0,0,0.2595,0.303,0.0418,0.1212,3.4658,0
2003/1/3 6:00,11.2058,0,0,0.255,0.2336,0.042,0.1531,3.5555,0
2003/1/3 6:15,1.4689,0,0,0.2526,0.3737,0.042,0.1598,3.6321,0
2003/1/3 6:30,6.5716,0,0,0.2569,0.1659,0.0419,0.1142,3.5148,0
2003/1/3 6:45,11.3014,0,0,0.2539,0.3941,0.0419,0.1581,3.4341,0
2003/1/3 7:00,11.2804,0,0,0.2572,0.146,0.059,0.1191,3.4713,0
2003/1/3 7:15,7.0845,0,0,0.2506,0.3936,0.0419,0.0541,3.603,0
2003/1/3 7:30,1.4488,0,0,0.2589,0.1391,0.0416,0.1113,3.3516,0
2003/1/3 7:45,8.6737,0,0,0.1863,0.402,0.0426,0.1126,3.4047,0
2003/1/3 8:00,3.2573,0,0,0.1709,0.221,0.0423,0.0668,3.4674,0
2003/1/3 8:15,0,0,0,0.1876,0.3239,0.0943,0.1184,3.6092,0
2003/1/3 8:30,0,0,0,0.216,0.3116,0.0593,0.0667,3.6094,0
2003/1/3 8:45,0,0,0,0.2144,0.2313,0.0422,0.1171,3.5484,0
2003/1/3 9:00,0,0,0,0.2213,0.3912,0.0416,0.1162,3.5112,0
2003/1/3 9:15,0,0,0,0.2189,0.3691,0.0416,0.0664,3.4381,0
2003/1/3 9:30,0,0,0,0.2288,0.1508,0.0426,0.1135,3.4776,0
2003/1/3 9:45,0.6733,0,0,0.2203,0.3963,0.0428,0.0662,3.6984,0
2003/1/3 10:00,4.6057,0,0,0.22,0.1397,0.0431,0.4429,4.1736,0
2003/1/3 10:15,4.5834,0,0,1.8546,0.392,0.0428,0.5836,4.4693,0
2003/1/3 10:30,4.5641,0,0,3.8079,0.3961,0.3574,0.5819,4.6204,0
2003/1/3 10:45,4.5556,0,0,1.4033,0.1246,0.447,0.1483,4.5563,0
2003/1/3 11:00,4.5557,0,0,0.1418,0.4039,0.1624,0.1243,4.3165,0
2003/1/3 11:15,4.554,0,0,0.1428,0.1862,0.0865,0.1168,4.1904,0
2003/1/3 11:30,4.5704,0,0,0.1405,0.358,0.087,0.0684,4.2103,0
2003/1/3 11:45,4.5642,0,0,0.1444,0.3987,0.087,0.5325,4.2962,0
2003/1/3 12:00,4.5793,0,0,0.1403,0.2648,0.0871,0.4507,4.1885,0
2003/1/3 12:15,4.6001,0,0,0.1408,0.2674,0.0871,0.4726,4.3168,0
2003/1/3 12:30,4.4513,0,0,0.145,0.3214,0.087,0.4694,4.5112,0
2003/1/3 12:45,4.3248,0,0,1.6076,0.2202,0.0871,0.4939,4.8322,0
2003/1/3 13:00,3.8271,0,0,0.8791,0.3951,0.0873,0.4851,4.749,0
2003/1/3 13:15,4.0157,0,0,0.0467,0.1518,0.0871,0.4808,4.7052,0
2003/1/3 13:30,4.2499,0,0,0.0953,0.397,0.0873,0.4409,4.6197,0
2003/1/3 13:45,3.171,0,0,0.1336,0.402,0.0871,0.4971,4.4188,0
2003/1/3 14:00,3.1906,0,0,0.145,0.1319,0.1562,0.5021,4.214,0
2003/1/3 14:15,4.3033,0,0,0.1453,0.3983,0.4202,0.4693,4.25,0
2003/1/3 14:30,3.902,0,0,0.1473,0.1456,0.4236,0.5151,4.2641,0
2003/1/3 14:45,3.7306,0,0,0.1499,0.398,0.4837,0.5164,4.2479,0
2003/1/3 15:00,4.0481,0,0,0.1454,0.1781,0.4748,0.4631,4.2628,0
2003/1/3 15:15,4.1498,0,0,0.1499,0.366,0.4362,0.5023,4.2163,0
2003/1/3 15:30,3.6251,0,0,0.1498,0.2614,0.4193,0.509,4.2313,0
2003/1/3 15:45,3.9514,0,0,0.347,0.2843,0.4739,0.4356,2.2212,0
2003/1/3 16:00,4.4074,0,0,2.9334,0.395,0.4061,0.4424,1.564,0
2003/1/3 16:15,3.6724,0,0,0.1372,0.4023,0.2079,0.4307,1.3638,0
2003/1/3 16:30,3.8354,0,0,0.1417,0.5528,0.0425,0.4228,1.1629,0
2003/1/3 16:45,3.8465,0,0,0.1463,0.4491,0.0423,0.4389,0.9616,0
2003/1/3 17:00,4.0379,0,0,0.1453,0.383,0.0423,0.4424,0.9766,0
2003/1/3 17:15,4.2178,0,0,0.1416,0.3931,0.042,0.3999,0.9612,0
2003/1/3 17:30,3.5228,0,0,0.1426,0.3986,0.0422,0.446,1.0015,0
2003/1/3 17:45,4.4686,0,0,0.1467,0.4058,0.0465,0.4175,2.4555,0
2003/1/3 18:00,3.9426,0,0,2.126,0.4077,0.408,0.4948,4.9388,0
2003/1/3 18:15,3.4403,0,0,6.3265,0.4058,0.4082,0.444,4.9859,0
2003/1/3 18:30,4.1816,0,0,4.5492,0.4064,0.4455,0.4496,4.9039,0
2003/1/3 18:45,4.0981,0,0,4.9764,0.3794,0.4527,0.394,4.2388,0
2003/1/3 19:00,3.5189,0,0,1.7332,0.1796,0.4444,0.4667,3.5284,0
2003/1/3 19:15,3.8004,0,0,0.3617,0.4008,0.4149,0.5092,4.6279,0
2003/1/3 19:30,3.5532,0,0,0.1763,0.4019,0.1086,0.5105,4.98,0
2003/1/3 19:45,3.4282,0,0,0.1639,0.4042,0.1083,0.4975,5.584,0
2003/1/3 20:00,3.9684,0,0,0.1701,0.1391,0.1086,0.4465,5.0554,0
2003/1/3 20:15,4.37,0,0,0.1918,0.396,0.1087,0.4788,4.6764,0
2003/1/3 20:30,3.5585,0,0,0.2071,0.401,0.1286,0.4723,4.7527,0
2003/1/3 20:45,3.8837,0,0,0.2147,0.1971,0.4743,0.4249,4.8499,0
2003/1/3 21:00,4.164,0,0,0.2166,0.3275,0.4689,0.4785,5.3015,0
2003/1/3 21:15,3.6868,0,0,0.2278,0.2605,0.4566,0.3234,5.1227,0
2003/1/3 21:30,3.2629,0,0,0.2169,0.2755,0.4497,0.0863,4.6981,0
2003/1/3 21:45,2.8925,0,0,0.2195,0.3964,0.4251,0.176,4.5605,0
2003/1/3 22:00,10.5751,0,0,0.2255,0.3007,0.108,0.1254,4.6443,0
2003/1/3 22:15,15.0214,0,0,0.2208,0.2199,0.1081,0.2007,4.5865,0
2003/1/3 22:30,14.9907,0,0,0.221,0.3609,0.1084,1.2063,-3.3672,0
2003/1/3 22:45,14.6791,0,0,0.2187,0.1734,0.109,0.7671,0.8048,0
2003/1/3 23:00,15.2657,0,0,0.2212,0.3927,0.1087,0.6936,1.273,0
2003/1/3 23:15,15.5782,0,0,0.2205,0.3973,0.1089,0.7353,1.3085,0
2003/1/3 23:30,14.653,0,0,0.214,0.124,0.1089,0.1152,1.2888,0
2003/1/3 23:45,15.135,0,0,0.2196,0.3941,0.109,0.1632,1.3395,0
2003/1/4 0:00,14.1739,0,0,0.2172,0.3979,0.2534,0.1773,1.3815,0
2003/1/4 0:15,14.0234,0,0,0.218,0.1195,0.451,0.1263,1.4651,0
2003/1/4 0:30,15.0669,0,0,0.2127,0.3954,0.4615,0.4752,1.5365,0
2003/1/4 0:45,15.8388,0,0,0.6044,0.3946,0.4537,0.5164,-1.4759,0
2003/1/4 1:00,15.5205,0,0,0.2557,0.1184,0.4071,0.6291,0.9838,0
2003/1/4 1:15,14.442,0,0,0.4018,0.3923,0.437,0.5966,0.6019,0
2003/1/4 1:30,14.9653,0,0,0.4147,0.3959,0.4307,0.5489,0.5916,0
2003/1/4 1:45,14.6629,0,0,0.2017,0.1152,0.4044,0.5939,0.8493,0
2003/1/4 2:00,12.0551,0,0,0.2105,0.4067,0.1463,0.2187,0.3796,0
2003/1/4 2:15,11.3986,0,0,0.24,0.1938,0.1093,0.1132,0.254,0
2003/1/4 2:30,11.4471,0,0,0.2444,0.341,0.1094,0.1572,0.235,0
2003/1/4 2:45,11.3718,0,0,0.2595,0.3977,0.1093,0.1639,0.2631,0
2003/1/4 3:00,11.2213,0,0,0.2465,0.2007,0.0593,0.1142,0.2366,0
2003/1/4 3:15,11.1735,0,0,0.2546,0.3112,0.0416,0.1649,0.2478,0
2003/1/4 3:30,11.1944,0,0,0.2544,0.2496,0.0419,0.1142,0.2461,0
2003/1/4 3:45,11.2203,0,0,0.2487,0.2724,0.0422,0.1564,0.2632,0
2003/1/4 4:00,11.2771,0,0,0.2553,0.3933,0.0422,0.1617,0.2511,0
2003/1/4 4:15,11.2991,0,0,0.2523,0.2624,0.0423,0.1643,0.2369,0
2003/1/4 4:30,11.31,0,0,0.253,0.246,0.0423,0.0884,0.2735,0
2003/1/4 4:45,11.3062,0,0,0.2553,0.3033,0.0425,0.102,0.2452,0
2003/1/4 5:00,11.2896,0,0,0.2507,0.2163,0.0423,0.0533,0.2612,0
2003/1/4 5:15,11.2586,0,0,0.2524,0.3908,0.0423,0.0999,0.2624,0
2003/1/4 5:30,11.23,0,0,0.2543,0.3012,0.0422,0.0991,0.3738,0
2003/1/4 5:45,11.2254,0,0,0.2544,0.2036,0.0415,0.0531,3.3641,0
2003/1/4 6:00,11.3698,0,0,0.252,0.3433,0.042,0.0999,3.416,0
2003/1/4 6:15,11.2415,0,0,0.2549,0.175,0.0416,0.1017,3.3349,0
2003/1/4 6:30,11.1881,0,0,0.254,0.3917,0.0415,0.0536,3.35,0
2003/1/4 6:45,11.1364,0,0,0.2534,0.3138,0.0413,0.0968,3.3127,0
2003/1/4 7:00,11.2405,0,0,0.2399,0.1914,0.059,0.1004,3.368,0
2003/1/4 7:15,6.8783,0,0,0.1728,0.3381,0.0418,0.053,3.3843,0
2003/1/4 7:30,1.4751,0,0,0.1704,0.1806,0.0422,0.0975,3.4458,0
2003/1/4 7:45,9.8584,0,0,0.1848,0.3928,0.042,0.0982,3.397,0
2003/1/4 8:00,3.2399,0,0,0.211,0.318,0.0423,0.103,3.6137,0
2003/1/4 8:15,0,0,0,0.2095,0.1935,0.0943,0.0645,3.527,0
2003/1/4 8:30,0,0,0,0.2144,0.3535,0.0596,0.1117,3.5581,0
2003/1/4 8:45,0,0,0,0.2229,0.1719,0.0426,0.0655,3.545,0
2003/1/4 9:00,0,0,0,0.2187,0.3959,0.0422,0.1159,3.6831,0
2003/1/4 9:15,0,0,0,0.2153,0.3239,0.0426,0.2591,3.7344,0
2003/1/4 9:30,0,0,0,0.2123,0.1912,0.0419,0.4854,3.8409,0
2003/1/4 9:45,0,0,0,3.7842,0.397,0.0418,0.4596,3.9031,0
2003/1/4 10:00,0,0,0,1.7955,0.232,0.0418,0.4512,3.8889,0
2003/1/4 10:15,0,0,0,0.1339,0.2864,0.0419,0.4938,3.7761,0
2003/1/4 10:30,0,0,0,0.1387,0.4042,0.0423,0.5266,3.8039,0
2003/1/4 10:45,0,0,0,0.1382,0.1133,0.0425,0.4496,4.0211,0
2003/1/4 11:00,0,0,0,0.1346,0.4143,0.0425,0.6468,4.0687,0
2003/1/4 11:15,0,0,0,0.1374,0.1391,0.0426,0.1086,4.2515,0
2003/1/4 11:30,0,0,0,0.1359,0.4075,0.0435,0.1079,0.5871,0
2003/1/4 11:45,0,0,0,0.1354,0.4121,0.0435,0.0636,0.4147,0
2003/1/4 12:00,0,0,0,0.1394,0.4671,0.0521,0.0973,0.4113,0
2003/1/4 12:15,0,0,0,0.1385,0.6026,0.0431,0.0916,0.4026,0
2003/1/4 12:30,0,0,0,0.1392,0.3881,0.0432,0.05,0.4051,0
2003/1/4 12:45,0,0,0,0.1354,0.4116,0.0432,0.0888,0.4164,0
2003/1/4 13:00,0,0,0,0.1368,0.4235,0.0433,0.0917,0.4092,0
2003/1/4 13:15,0,0,0,0.139,0.4301,0.0435,0.0923,0.4146,0
2003/1/4 13:30,0,0,0,0.1394,0.4323,0.0436,0.0487,0.4143,0
2003/1/4 13:45,0,0,0,0.1368,0.1698,0.0433,0.0939,0.415,0
2003/1/4 14:00,0,0,0,0.1401,0.4176,0.0433,0.0482,0.4035,0
2003/1/4 14:15,0,0,0,0.1405,0.4087,0.0433,0.093,0.4215,0
2003/1/4 14:30,0,0,0,0.1377,0.1633,0.0433,0.088,0.4127,0
2003/1/4 14:45,0,0,0,0.1381,0.4167,0.0431,0.0472,0.4164,0
2003/1/4 15:00,0,0,0,0.139,0.266,0.0433,0.095,0.4156,0
2003/1/4 15:15,0,0,0,0.1388,0.2948,0.0432,0.0916,0.4084,0
2003/1/4 15:30,0,0,0,0.1404,0.4173,0.0432,0.0469,0.4209,0
2003/1/4 15:45,0,0,0,0.138,0.1333,0.0429,0.1009,0.4054,0
2003/1/4 16:00,0,0,0,0.1407,0.4133,0.0426,0.0562,0.4173,0
2003/1/4 16:15,0,0,0,0.1392,0.1454,0.0425,0.1045,0.3931,0
2003/1/4 16:30,0,0,0,0.1391,0.4069,0.0423,0.1067,0.4084,0
2003/1/4 16:45,0,0,0,0.1385,0.3505,0.0431,0.0582,0.4072,0
2003/1/4 17:00,0,0,0,0.1418,0.194,0.0429,0.0989,0.4509,0
2003/1/4 17:15,0,0,0,0.1401,0.3246,0.0426,0.0577,0.4542,0
2003/1/4 17:30,0,0,0,0.145,0.2245,0.0428,0.1008,0.4491,0
2003/1/4 17:45,0,0,0,0.1394,0.4077,0.0429,0.1054,0.4596,0
2003/1/4 18:00,0,0,0,0.1374,0.2051,0.0429,0.0585,0.4608,0
2003/1/4 18:15,0,0,0,0.1446,0.33,0.0429,0.106,0.4679,0
2003/1/4 18:30,0,0,0,0.1421,0.1853,0.0428,0.0585,0.4594,0
2003/1/4 18:45,0,0,0,0.1394,0.3555,0.0426,0.1073,0.4454,0
2003/1/4 19:00,0,0,0,0.1404,0.4062,0.0596,0.0582,0.4497,0
2003/1/4 19:15,0,0,0,0.1408,0.1225,0.0428,0.1024,0.4644,0
2003/1/4 19:30,0,0,0,0.1452,0.402,0.0426,0.1074,0.4607,0
2003/1/4 19:45,0,0,0,0.1434,0.1335,0.0426,0.0592,0.4476,0
2003/1/4 20:00,0,0,0,0.1423,0.3999,0.0428,0.1068,1.1278,0
2003/1/4 20:15,3.2312,0,0,0.1463,0.4008,0.2635,0.0596,7.0697,0
2003/1/4 20:30,4.5219,0,0,0.1378,0.1715,0.4182,0.1035,8.5082,0
2003/1/4 20:45,3.743,0,0,0.1358,0.4016,0.4121,0.0586,5.8278,0
2003/1/4 21:00,3.6995,0,0,0.1413,0.4072,0.3901,0.1044,4.6145,0
2003/1/4 21:15,4.3501,0,0,0.1364,0.1436,0.3347,0.1089,4.5824,0
2003/1/4 21:30,3.0424,0,0,0.1391,0.391,0.111,0.0927,4.6806,0
2003/1/4 21:45,2.5119,0,0,0.1374,0.1899,0.4117,0.1673,4.4235,0
2003/1/4 22:00,10.5529,0,0,0.1394,0.3496,0.4452,0.1187,4.3119,0
2003/1/4 22:15,13.4734,0,0,1.4088,0.3999,0.4539,0.1678,-4.5613,0
2003/1/4 22:30,13.6827,0,0,1.5551,0.4045,0.4601,0.114,-7.4192,0
2003/1/4 22:45,13.8473,0,0,0.0379,0.413,0.449,0.1539,3.9704,0
2003/1/4 23:00,13.8217,0,0,0.076,0.413,0.4576,0.2187,4.0575,0
2003/1/4 23:15,13.5444,0,0,0.1189,0.4114,0.4509,0.433,3.9869,0
2003/1/4 23:30,13.7388,0,0,0.1395,0.414,0.4581,0.5253,4.0008,0
2003/1/4 23:45,13.8727,0,0,0.1403,0.2102,0.426,0.5498,1.8098,0
2003/1/5 0:00,14.0993,0,0,0.1443,0.4051,0.4127,0.5244,0.9543,0
2003/1/5 0:15,14.107,0,0,0.1446,0.1329,0.4091,0.5651,0.9863,0
2003/1/5 0:30,14.1009,0,0,0.1453,0.4032,0.4092,0.5116,1.1153,0
2003/1/5 0:45,13.5501,0,0,0.1439,0.1096,0.3948,0.4804,1.0699,0